Fort Smith, AR

9:16 PM CDT on March 28, 2017 (GMT -0500)
Fort Smith Regional

Weather History for KFSM - July, 2013

Change the Weather History Date:

Tuesday, July 9, 2013

  Actual Average Record
Temperature  
Mean Temperature 87 °F 82 °F  
Max Temperature 98 °F 93 °F 106 °F (1964)
Min Temperature 75 °F 71 °F 56 °F (1891)
Cooling Degree Days 22 17  
Month to date cooling degree days 137 149  
Year to date cooling degree days 864 778  
Since 1 June cooling degree days 590 534  
Growing Degree Days 36 (Base 50)    
Moisture  
Dew Point 69 °F    
Average Humidity 61    
Maximum Humidity 87    
Minimum Humidity 35    
Precipitation  
Precipitation 0.00 in 0.11 in 1.50 in (2012)
Month to date precipitation 0.00 1.05  
Year to date precipitation 27.08 24.52  
Sea Level Pressure  
Sea Level Pressure 30.02 in    
Wind  
Wind Speed 6 mph (SSW)    
Max Wind Speed 18 mph    
Max Gust Speed 22 mph    
Visibility 10 miles    
Events      
T = Trace of Precipitation, MM = Missing Value Source: NWS Daily Summary

Daily Weather History Graph

Daily Weather History Graph

Search for Another Location

Airport or City:

Trip Planner

Search our weather history database for the weather conditions in past years. The results will help you decide how hot, cold, wet, or windy it might be!

Date:

Astronomy

Jul. 09, 2013 Rise Set
Actual Time 6:10 AM CDT 8:34 PM CDT
Civil Twilight 5:41 AM CDT 9:04 PM CDT
Nautical Twilight 5:04 AM CDT 9:40 PM CDT
Astronomical Twilight 4:24 AM CDT 10:20 PM CDT
Moon 7:30 AM CDT (7/9) 9:18 PM CDT (7/9)
Length of Visible Light 15h 23m
Length of Day
14h 24m
New Moon, 2% of the Moon is Illuminated
Jul 9
New Moon
Jul 15
First Quarter
Jul 22
Full
Jul 29
Last Quarter
Aug 6
New

Hourly Weather History & Observations

Time (CDT) Temp. Heat Index Dew Point Humidity Pressure Visibility Wind Dir Wind Speed Gust Speed Precip Events Conditions
12:53 AM 82.0 °F 85.9 °F 70.0 °F 67% 30.04 in 10.0 mi Calm Calm - N/A   Clear
1:53 AM 80.1 °F 83.2 °F 70.0 °F 71% 30.04 in 10.0 mi Calm Calm - N/A   Clear
2:53 AM 78.1 °F - 70.0 °F 76% 30.03 in 10.0 mi Calm Calm - N/A   Clear
3:53 AM 77.0 °F - 70.0 °F 79% 30.04 in 10.0 mi Calm Calm - N/A   Clear
4:53 AM 75.9 °F - 71.1 °F 85% 30.04 in 10.0 mi Calm Calm - N/A   Clear
5:53 AM 77.0 °F - 71.1 °F 82% 30.05 in 10.0 mi ENE 3.5 mph - N/A   Clear
6:53 AM 77.0 °F - 71.1 °F 82% 30.06 in 10.0 mi Calm Calm - N/A   Clear
7:53 AM 80.1 °F 83.8 °F 72.0 °F 76% 30.07 in 10.0 mi Calm Calm - N/A   Clear
8:53 AM 84.0 °F 89.0 °F 71.1 °F 65% 30.09 in 10.0 mi Calm Calm - N/A   Clear
9:53 AM 87.1 °F 92.0 °F 70.0 °F 57% 30.08 in 10.0 mi South 5.8 mph - N/A   Clear
10:53 AM 90.0 °F 95.4 °F 70.0 °F 52% 30.07 in 10.0 mi SW 13.8 mph - N/A   Clear
11:53 AM 91.0 °F 96.6 °F 70.0 °F 50% 30.06 in 10.0 mi SW 10.4 mph - N/A   Scattered Clouds
12:53 PM 93.9 °F 99.1 °F 69.1 °F 44% 30.04 in 10.0 mi WSW 10.4 mph 20.7 mph N/A   Partly Cloudy
1:53 PM 95.0 °F 99.5 °F 68.0 °F 41% 30.03 in 10.0 mi SSW 13.8 mph 20.7 mph N/A   Scattered Clouds
2:53 PM 96.1 °F 101.6 °F 69.1 °F 41% 30.00 in 10.0 mi SSW 13.8 mph 19.6 mph N/A   Partly Cloudy
3:53 PM 97.0 °F 102.8 °F 69.1 °F 40% 29.99 in 10.0 mi SW 10.4 mph 18.4 mph N/A   Mostly Cloudy
4:53 PM 98.1 °F 102.4 °F 66.9 °F 36% 29.98 in 10.0 mi WSW 9.2 mph - N/A   Partly Cloudy
5:53 PM 97.0 °F 101.0 °F 66.9 °F 37% 29.96 in 10.0 mi SSW 12.7 mph 18.4 mph N/A   Clear
6:53 PM 96.1 °F 99.9 °F 66.9 °F 38% 29.95 in 10.0 mi South 9.2 mph - N/A   Clear
7:53 PM 93.9 °F 97.5 °F 66.9 °F 41% 29.95 in 10.0 mi SSW 8.1 mph - N/A   Clear
8:53 PM 90.0 °F 93.6 °F 68.0 °F 48% 29.95 in 10.0 mi SSW 5.8 mph - N/A   Clear
9:53 PM 88.0 °F 91.4 °F 68.0 °F 51% 29.96 in 10.0 mi SSW 5.8 mph - N/A   Clear
10:53 PM 88.0 °F 90.7 °F 66.9 °F 49% 29.96 in 10.0 mi SSW 8.1 mph - N/A   Clear
11:53 PM 86.0 °F 88.2 °F 66.0 °F 51% 29.97 in 10.0 mi South 5.8 mph - N/A   Clear